Location: Aula-Vintri
(58.3875°N, 22.4322°E)
Time: 01:05:33
(UTC+00:00)

MetOp-A - Pass Details

Date: 13 October 2019
Orbit: 819 x 821 km, 98.6° (Epoch: 20 November)

Event Time Altitude Azimuth Distance (km) Brightness Sun altitude
Exits shadow 17:42:21 30° 115° (ESE) 1,430 4.8 -17.8°
Maximum altitude 17:44:33 47° 61° (ENE) 1,079 4.4 -18.1°
Drops below altitude 10° 17:49:41 10° 349° (N) 2,434 6.9 -18.8°
Sets 17:52:07 0° 344° (NNW) 3,371 7.8 -19.1°
